Home   Weather   Springfield   Past weeks

Flag for USA Past Weather in Springfield, Illinois, USA — Yesterday and Last 2 Weeks

Now
33 °F

Clear.


Feels Like: 29 °F
Forecast: 30 / 43 °F
Wind: 5 mph from Northeast

Location: Capital Airport

Current Time: Dec 3, 2016 at 7:47:09 am

Latest Report: Dec 3, 2016 at 6:52 am


Visibility: 10 mi

Pressure: 30.39 "Hg

Humidity: 82%

Dew Point: 28 °F

Location of SpringfieldLocation

Past Weather in Springfield — Graph

°F

Springfield Temperature Yesterday

Maximum temperature yesterday: 44 °F (at 2:52 pm)
Minimum temperature yesterday: 36 °F (at 6:52 am)
Average temperature yesterday: 40 °F

High & Low Weather Summary for the Past Weeks

 TemperatureHumidityPressure
High66 °F (Nov 18, 10:52 am)100% (Nov 28, 3:52 am)30.44 "Hg (Nov 28, 3:52 am)
Low24 °F (Nov 21, 1:52 am)31% (Nov 19, 1:52 pm)29.23 "Hg (Nov 28, 5:52 pm)
Average42 °F73%30.07 "Hg
* Reported Nov 18 6:52 am — Dec 3 6:52 am, Springfield, Weather by CustomWeather, © 2016

Note: Actual official high and low records may vary slightly from our data, if they occured in-between our weather recording intervals... More about our weather records

Advertising

Springfield Weather History for the Previous 24 Hours

Scroll right to see more
 ConditionsComfort  
Time TempWeatherWind HumidityBarometerVisibility
6:52 am
Sat, Dec 3
33 °FClear.5 mph82%30.39 "Hg10 mi
5:52 am35 °FPassing clouds.6 mph82%30.38 "Hg10 mi
4:52 am36 °FOvercast.No wind85%30.38 "Hg10 mi
3:52 am36 °FOvercast.No wind85%30.38 "Hg10 mi
2:52 am37 °FOvercast.5 mph86%30.38 "Hg10 mi
1:52 am38 °FOvercast.No wind86%30.38 "Hg10 mi
11:52 pm
Fri, Dec 2
39 °FOvercast.No wind76%30.36 "Hg10 mi
10:52 pm40 °FOvercast.5 mph73%30.36 "Hg10 mi
9:52 pm40 °FOvercast.6 mph77%30.34 "Hg10 mi
8:52 pm41 °FOvercast.5 mph76%30.36 "Hg10 mi
7:52 pm41 °FOvercast.3 mph76%30.35 "Hg10 mi
6:52 pm41 °FOvercast.3 mph82%30.33 "Hg10 mi
5:52 pm42 °FOvercast.3 mph76%30.32 "Hg10 mi
4:52 pm42 °FOvercast.5 mph76%30.31 "Hg10 mi
3:52 pm43 °FOvercast.7 mph65%30.30 "Hg10 mi
2:52 pm44 °FOvercast.9 mph63%30.29 "Hg10 mi
1:52 pm43 °FOvercast.9 mph65%30.27 "Hg10 mi
12:52 pm42 °FOvercast.7 mph71%30.27 "Hg10 mi
11:52 am42 °FOvercast.12 mph71%30.27 "Hg10 mi
10:52 am40 °FOvercast.9 mph73%30.27 "Hg10 mi
9:52 am38 °FOvercast.8 mph76%30.27 "Hg10 mi
8:52 am37 °FOvercast.10 mph79%30.25 "Hg10 mi
7:52 am36 °FOvercast.8 mph79%30.23 "Hg10 mi
Weather by CustomWeather, © 2016

See weather overviewHow to use our weather pages